GSAT0216 (PRN E25)

Last updated on Nov. 17, 2019, 4:20 a.m. UTC

1 43056U 17079B   19320.31360676 -.00000010  00000-0  00000+0 0  9990
2 43056  56.4418 287.6690 0005574 269.7853  90.1333  1.70473616 11979
UTC
Height (km)
Latitude
Longitude
Inclination
Orbital Period
UTC large
Height (km)
Speed (km/s)
/
Latitude / Longitude
Inclination (degrees)
Orbital Period (minutes)
Azimuth
Elevation
Range (km)
Doppler Factor
iOS Compass Heading
iOS Angle

Next 30 passes for location: Hong Kong

Rise time Rise Azimuth (degrees) Set time Set Azimuth (degrees) Duration Max altitude (degrees)

No matching passes for this satellites